Weather History for KAQP - May, 2012

Change the Weather History Date:

Wednesday, May 9, 2012

  Actual Average Record
Temperature  
Mean Temperature 55 °F -  
Max Temperature 64 °F 64 °F 82 °F (2001)
Min Temperature 46 °F 41 °F 32 °F (1997)
Degree Days  
Heating Degree Days 10    
Growing Degree Days 5 (Base 50)    
Moisture  
Dew Point 42 °F    
Average Humidity 66    
Maximum Humidity 93    
Minimum Humidity 39    
Precipitation  
Precipitation 0.00 in - - ()
Sea Level Pressure  
Sea Level Pressure 30.01 in    
Wind  
Wind Speed 5 mph (SW)    
Max Wind Speed 9 mph    
Max Gust Speed -    
Visibility 10 miles    
Events      
Averages and records for this station are not official NWS values.
T = Trace of Precipitation, MM = Missing Value Source: NWS Daily Summary

Daily Weather History Graph

Daily Weather History Graph

Search for Another Location

Airport or City:

Trip Planner

Search our weather history database for the weather conditions in past years. The results will help you decide how hot, cold, wet, or windy it might be!

Date:

Astronomy

May. 09, 2012 Rise Set
Actual Time 6:00 AM CDT 8:40 PM CDT
Civil Twilight 5:27 AM CDT 9:14 PM CDT
Nautical Twilight 4:44 AM CDT 9:57 PM CDT
Astronomical Twilight 3:56 AM CDT 10:46 PM CDT
Moon No Moon Rise 9:14 AM CDT (5/9)
Length of Visible Light 15h 47m
Length of Day
14h 39m
Waning Gibbous, 82% of the Moon is Illuminated
May 9
Waning Gibbous
May 12
Last Quarter
May 20
New
May 28
First Quarter
Jun 4
Full

Hourly Weather History & Observations

Time (CDT) Temp. Windchill Dew Point Humidity Pressure Visibility Wind Dir Wind Speed Gust Speed Precip Events Conditions
12:14 AM 46.4 °F 41.9 °F 44.6 °F 93% 30.04 in 10.0 mi NW 9.2 mph - N/A   Clear
12:35 AM 46.4 °F 41.9 °F 44.6 °F 93% 30.05 in 10.0 mi NW 9.2 mph - N/A   Clear
12:54 AM 46.4 °F 41.9 °F 42.8 °F 87% 30.05 in 10.0 mi NW 9.2 mph - N/A   Scattered Clouds
1:15 AM 46.4 °F 41.9 °F 42.8 °F 87% 30.06 in 10.0 mi NW 9.2 mph - N/A   Mostly Cloudy
1:34 AM 46.4 °F 41.9 °F 44.6 °F 93% 30.05 in 10.0 mi NNW 9.2 mph - N/A   Overcast
2:15 AM 46.4 °F 42.4 °F 42.8 °F 87% 30.05 in 10.0 mi NNW 8.1 mph - N/A   Overcast
2:35 AM 46.4 °F 41.9 °F 42.8 °F 87% 30.05 in 10.0 mi NNW 9.2 mph - N/A   Scattered Clouds
2:55 AM 46.4 °F 42.9 °F 44.6 °F 93% 30.05 in 10.0 mi NNW 6.9 mph - N/A   Mostly Cloudy
3:34 AM 46.4 °F 42.9 °F 44.6 °F 93% 30.06 in 10.0 mi NNW 6.9 mph - N/A   Overcast
3:55 AM 46.4 °F 43.5 °F 44.6 °F 93% 30.06 in 10.0 mi NNW 5.8 mph - N/A   Overcast
4:15 AM 48.2 °F - 44.6 °F 87% 30.06 in 10.0 mi NNW 6.9 mph - N/A   Overcast
4:35 AM 46.4 °F 44.3 °F 44.6 °F 93% 30.06 in 10.0 mi NNW 4.6 mph - N/A   Overcast
4:54 AM 46.4 °F 44.3 °F 44.6 °F 93% 30.06 in 10.0 mi NNW 4.6 mph - N/A   Overcast
5:14 AM 46.4 °F 45.2 °F 44.6 °F 93% 30.06 in 10.0 mi NW 3.5 mph - N/A   Overcast
5:35 AM 46.4 °F - 44.6 °F 93% 30.06 in 10.0 mi Calm Calm - N/A   Overcast
5:55 AM 46.4 °F - 44.6 °F 93% 30.06 in 10.0 mi Calm Calm - N/A   Overcast
6:15 AM 46.4 °F 45.2 °F 44.6 °F 93% 30.06 in 10.0 mi NNW 3.5 mph - N/A   Overcast
6:34 AM 46.4 °F 45.2 °F 44.6 °F 93% 30.07 in 10.0 mi NNW 3.5 mph - N/A   Overcast
6:54 AM 46.4 °F - 44.6 °F 93% 30.07 in 10.0 mi Calm Calm - N/A   Scattered Clouds
7:14 AM 48.2 °F - 46.4 °F 93% 30.08 in 10.0 mi NNW 3.5 mph - N/A   Mostly Cloudy
7:34 AM 48.2 °F - 46.4 °F 93% 30.09 in 10.0 mi Calm Calm - N/A   Overcast
7:54 AM 48.2 °F - 46.4 °F 93% 30.09 in 10.0 mi Calm Calm - N/A   Overcast
8:14 AM 51.8 °F - 46.4 °F 82% 30.09 in 10.0 mi Calm Calm - N/A   Overcast
8:34 AM 51.8 °F - 46.4 °F 82% 30.09 in 10.0 mi Calm Calm - N/A   Mostly Cloudy
8:55 AM 53.6 °F - 44.6 °F 72% 30.09 in 10.0 mi Calm Calm - N/A   Mostly Cloudy
9:14 AM 53.6 °F - 44.6 °F 72% 30.08 in 10.0 mi Calm Calm - N/A   Scattered Clouds
9:34 AM 53.6 °F - 44.6 °F 72% 30.08 in 10.0 mi Calm Calm - N/A   Scattered Clouds
9:54 AM 55.4 °F - 42.8 °F 63% 30.08 in 10.0 mi Calm Calm - N/A   Scattered Clouds
10:14 AM 57.2 °F - 44.6 °F 63% 30.07 in 10.0 mi North 4.6 mph - N/A   Scattered Clouds
10:34 AM 57.2 °F - 42.8 °F 59% 30.08 in 10.0 mi NNE 3.5 mph - N/A   Mostly Cloudy
10:55 AM 55.4 °F - 42.8 °F 63% 30.08 in 10.0 mi Calm Calm - N/A   Mostly Cloudy
11:14 AM 57.2 °F - 39.2 °F 51% 30.08 in 10.0 mi North 5.8 mph - N/A   Mostly Cloudy
11:35 AM 57.2 °F - 41.0 °F 55% 30.07 in 10.0 mi Calm Calm - N/A   Overcast
11:55 AM 57.2 °F - 39.2 °F 51% 30.06 in 10.0 mi NNE 3.5 mph - N/A   Overcast
12:15 PM 59.0 °F - 39.2 °F 48% 30.05 in 10.0 mi West 3.5 mph - N/A   Scattered Clouds
12:34 PM 57.2 °F - 41.0 °F 55% 30.05 in 10.0 mi SW 6.9 mph - N/A   Mostly Cloudy
12:55 PM 57.2 °F - 39.2 °F 51% 30.05 in 10.0 mi Calm Calm - N/A   Overcast
1:14 PM 59.0 °F - 41.0 °F 51% 30.04 in 10.0 mi South 3.5 mph - N/A   Overcast
1:35 PM 60.8 °F - 39.2 °F 45% 30.03 in 10.0 mi SW 4.6 mph - N/A   Mostly Cloudy
1:54 PM 60.8 °F - 39.2 °F 45% 30.02 in 10.0 mi SSE 4.6 mph - N/A   Mostly Cloudy
2:15 PM 60.8 °F - 41.0 °F 48% 30.02 in 10.0 mi SSW 5.8 mph - N/A   Overcast
2:34 PM 60.8 °F - 39.2 °F 45% 30.01 in 10.0 mi SW 3.5 mph - N/A   Mostly Cloudy
2:55 PM 59.0 °F - 37.4 °F 45% 30.00 in 10.0 mi Calm Calm - N/A   Scattered Clouds
3:15 PM 62.6 °F - 39.2 °F 42% 30.00 in 10.0 mi Calm Calm - N/A   Mostly Cloudy
3:34 PM 60.8 °F - 39.2 °F 45% 29.99 in 10.0 mi SE 3.5 mph - N/A   Mostly Cloudy
3:54 PM 60.8 °F - 37.4 °F 42% 29.98 in 10.0 mi SW 3.5 mph - N/A   Scattered Clouds
4:14 PM 62.6 °F - 39.2 °F 42% 29.97 in 10.0 mi South 5.8 mph - N/A   Mostly Cloudy
4:34 PM 64.4 °F - 39.2 °F 40% 29.96 in 10.0 mi West 5.8 mph - N/A   Mostly Cloudy
4:54 PM 62.6 °F - 39.2 °F 42% 29.96 in 10.0 mi South 6.9 mph - N/A   Mostly Cloudy
5:14 PM 62.6 °F - 37.4 °F 39% 29.95 in 10.0 mi SW 3.5 mph - N/A   Scattered Clouds
5:34 PM 62.6 °F - 39.2 °F 42% 29.95 in 10.0 mi SW 9.2 mph - N/A   Clear
5:55 PM 64.4 °F - 39.2 °F 40% 29.95 in 10.0 mi SSW 8.1 mph - N/A   Clear
6:14 PM 62.6 °F - 37.4 °F 39% 29.94 in 10.0 mi SW 4.6 mph - N/A   Clear
6:34 PM 62.6 °F - 39.2 °F 42% 29.93 in 10.0 mi South 8.1 mph - N/A   Clear
6:54 PM 62.6 °F - 39.2 °F 42% 29.93 in 10.0 mi SSW 5.8 mph - N/A   Clear
7:14 PM 62.6 °F - 39.2 °F 42% 29.93 in 10.0 mi SSE 6.9 mph - N/A   Clear
7:34 PM 62.6 °F - 39.2 °F 42% 29.92 in 10.0 mi SSE 5.8 mph - N/A   Clear
7:54 PM 60.8 °F - 39.2 °F 45% 29.92 in 10.0 mi South 3.5 mph - N/A   Clear
8:14 PM 59.0 °F - 41.0 °F 51% 29.92 in 10.0 mi SE 4.6 mph - N/A   Clear
8:34 PM 57.2 °F - 39.2 °F 51% 29.92 in 10.0 mi SE 5.8 mph - N/A   Clear
8:54 PM 57.2 °F - 41.0 °F 55% 29.92 in 10.0 mi SE 3.5 mph - N/A   Clear
9:14 PM 55.4 °F - 42.8 °F 63% 29.92 in 10.0 mi SE 4.6 mph - N/A   Clear
9:34 PM 55.4 °F - 42.8 °F 63% 29.92 in 10.0 mi SE 4.6 mph - N/A   Clear
9:55 PM 55.4 °F - 42.8 °F 63% 29.92 in 10.0 mi SE 4.6 mph - N/A   Clear
10:15 PM 53.6 °F - 42.8 °F 67% 29.92 in 10.0 mi SE 5.8 mph - N/A   Clear
10:34 PM 53.6 °F - 42.8 °F 67% 29.92 in 10.0 mi SSE 5.8 mph - N/A   Clear
10:54 PM 53.6 °F - 42.8 °F 67% 29.92 in 10.0 mi SSE 5.8 mph - N/A   Clear
11:14 PM 53.6 °F - 42.8 °F 67% 29.91 in 10.0 mi SE 5.8 mph - N/A   Clear
11:34 PM 51.8 °F - 42.8 °F 71% 29.91 in 10.0 mi SE 5.8 mph - N/A   Clear
11:54 PM 51.8 °F - 42.8 °F 71% 29.90 in 10.0 mi SE 5.8 mph - N/A   Clear